YUBELEINY 2

Satellite information

Favourite Embed

Satellite Type and Status

PAYLOADIN ORBIT

Key statistics

Satellite YUBELEINY 2 at a glance.

Uptime

4893

Days in orbit

Revolutions

≈ 12.4

Per day

Orbit

LEO

Low Earth Orbit

Inclination

82.5

Latest

Satellite identification and parameters

Extended collection of information and parameters for YUBELEINY 2.

Object identification

Identified? True

Debris? False

Object name: YUBELEINY 2

International designator: 2012-041C

Object number (NORAD): 38735

Object ID (CCSDS): 38735

Country: COMMONWEALTH OF INDEPENDENT STATES (CIS)

Current information (Y/N): Y

RCS size: MEDIUM

Orbital parameters

Period: 115.882 minutes

Inclination: 82.4749 deg

SMA: 7873.565 km

Apoapsis: 1509.588 km

Periapsis: 1481.271 km

RAAN: 187.0818 deg

Eccentricy: 0.00179819

Argument of periapsis: 100.4068 deg

Mean anomaly: 259.9039 deg

Mean motion: 12.42640985 rev/day

Mean motion (dot): 0.00000059 rev/day2

B* drag term: 0.00035285864 1/REarth

Two-line elements (TLE)

Creation date: Dec. 19, 2025, 2:08 a.m.

Reference frame: TEME

Reference center: EARTH

Epoch: Dec. 18, 2025, 10:14 p.m. UTC

TLE line 0: 0 YUBELEINY 2

TLE line 1: 1 38735U 12041C 25352.92671698 .00000059 00000-0 35286-3 0 9990

TLE line 2: 2 38735 82.4749 187.0818 0017982 100.4068 259.9039 12.42640985607451

Live tracking on map

Real-time ground track for satellite YUBELEINY 2.

In-orbit conjunctions

There are no conjunctions computed for YUBELEINY 2, at the moment. Check back to stay up to date, as we update our databases every day.

Go to all conjunctions

Associated space launch

Gonets-M are an upgraded version of Gonets satellites, derived from military communications system Strela-3. Gonets-M constellation is tasked with monitoring ecological and industrial objects, providing communication and data transmission services, covering also the remote areas like the Far North region.

YUBELEINY 2 was lifted into orbit during the mission ‘Rokot / Briz-KM | Gonets M-13, Gonets M-15, Strela-3M (Kosmos-2481) & Yubileyniy 2 (MiR)’, on board a Rokot/Briz-KM space rocket.

The launch took place on July 28, 2012, 1:35 a.m. from 133/3 (133L).

For more information about the launch, click the button.

Launch to space Rokot / Briz-KM | Gonets M-13, Gonets M-15, Strela-3M (Kosmos-2481) & Yubileyniy 2 (MiR)
Rokot / Briz-KM | Gonets M-13, Gonets M-15, Strela-3M (Kosmos-2481) & Yubileyniy 2 (MiR)

Agency: N/A

Status: Launch Successful

Launch date: July 28, 2012, 1:35 a.m. UTC

Rocket: Rokot/Briz-KM

Launch pad: 133/3 (133L)

Location: Plesetsk Cosmodrome, Russian Federation

...

Latest news about this satellite

There are no fresh news available about this satellite. Check back as we update our databases every day.


Newsletter sign-up

Weekly statistics, charts and insights to help you stay on top of the space industry.